Time,TemperatureF,DewpointF,PressureIn,WindDirection,WindDirectionDegrees,WindSpeedMPH,WindSpeedGustMPH,Humidity,HourlyPrecipIn,Conditions,Clouds,dailyrainin,SoftwareType,DateUTC
2013-03-10 13:45:00,55.2,46.7,29.44,South,180,0.0,0.0,73,0.00,,,0.00,WUHU216HW,2013-03-10 12:45:00,
2013-03-10 13:50:00,54.6,46.1,29.43,South,180,0.0,3.5,73,0.00,,,0.00,WUHU216HW,2013-03-10 12:50:00,
2013-03-10 13:55:00,55.0,46.1,29.43,SSW,203,0.0,3.5,72,0.00,,,0.00,WUHU216HW,2013-03-10 12:55:00,
2013-03-10 14:00:00,55.0,46.1,29.43,South,180,1.7,5.1,72,0.00,,,0.00,WUHU216HW,2013-03-10 13:00:00,
2013-03-10 14:05:00,55.0,46.5,29.44,North,0,0.0,5.1,73,0.00,,,0.00,WUHU216HW,2013-03-10 13:05:00,
2013-03-10 14:10:00,54.8,46.0,29.44,NW,315,0.0,0.0,72,0.00,,,0.00,WUHU216HW,2013-03-10 13:10:00,
2013-03-10 14:15:00,54.6,45.8,29.44,NW,315,0.0,0.0,72,0.00,,,0.00,WUHU216HW,2013-03-10 13:15:00,
2013-03-10 14:20:00,54.5,45.6,29.44,NNW,338,0.6,0.6,72,0.00,,,0.00,WUHU216HW,2013-03-10 13:20:00,
2013-03-10 14:25:00,54.5,45.3,29.44,North,0,0.0,2.4,71,0.00,,,0.00,WUHU216HW,2013-03-10 13:25:00,
2013-03-10 14:30:00,54.3,45.1,29.45,NNW,338,2.4,6.0,71,0.00,,,0.00,WUHU216HW,2013-03-10 13:30:00,
2013-03-10 14:35:00,54.1,44.9,29.45,NW,315,3.5,6.0,71,0.00,,,0.00,WUHU216HW,2013-03-10 13:35:00,
2013-03-10 14:40:00,54.1,44.9,29.45,ENE,68,0.0,4.0,71,0.00,,,0.00,WUHU216HW,2013-03-10 13:40:00,
2013-03-10 14:45:00,54.3,45.4,29.45,NNE,23,0.0,4.6,72,0.00,,,0.00,WUHU216HW,2013-03-10 13:45:00,
2013-03-10 14:50:00,54.8,45.1,29.45,NW,315,1.1,4.6,70,0.00,,,0.00,WUHU216HW,2013-03-10 13:50:00,
2013-03-10 14:55:00,55.0,45.0,29.46,North,0,0.0,5.3,69,0.00,,,0.00,WUHU216HW,2013-03-10 13:55:00,
2013-03-10 15:00:00,55.0,45.0,29.46,NNW,338,0.0,5.3,69,0.00,,,0.00,WUHU216HW,2013-03-10 14:00:00,
2013-03-10 15:05:00,55.4,45.4,29.45,NNE,23,1.1,2.4,69,0.00,,,0.00,WUHU216HW,2013-03-10 14:05:00,
2013-03-10 15:10:00,55.4,45.4,29.46,NE,45,0.0,3.1,69,0.00,,,0.00,WUHU216HW,2013-03-10 14:10:00,
2013-03-10 15:15:00,55.4,45.4,29.46,NNW,338,0.0,3.1,69,0.00,,,0.00,WUHU216HW,2013-03-10 14:15:00,
2013-03-10 15:20:00,55.4,45.4,29.47,NNE,23,0.0,5.3,69,0.00,,,0.00,WUHU216HW,2013-03-10 14:20:00,
2013-03-10 15:25:00,55.4,45.4,29.47,NE,45,0.6,5.3,69,0.00,,,0.00,WUHU216HW,2013-03-10 14:25:00,
2013-03-10 15:30:00,55.2,45.2,29.47,North,0,0.0,2.9,69,0.00,,,0.00,WUHU216HW,2013-03-10 14:30:00,
2013-03-10 15:35:00,55.2,45.2,29.46,NE,45,0.0,2.9,69,0.00,,,0.00,WUHU216HW,2013-03-10 14:35:00,
2013-03-10 15:40:00,55.0,45.0,29.46,NW,315,0.0,4.9,69,0.00,,,0.00,WUHU216HW,2013-03-10 14:40:00,
2013-03-10 15:45:00,54.8,44.9,29.46,East,90,0.0,4.9,69,0.00,,,0.00,WUHU216HW,2013-03-10 14:45:00,
2013-03-10 15:50:00,54.8,45.3,29.46,South,180,0.0,0.0,70,0.00,,,0.00,WUHU216HW,2013-03-10 14:50:00,
2013-03-10 15:55:00,54.6,45.1,29.46,SSW,203,0.0,0.0,70,0.00,,,0.00,WUHU216HW,2013-03-10 14:55:00,
2013-03-10 16:00:00,54.6,45.1,29.46,SSE,158,0.0,0.0,70,0.00,,,0.00,WUHU216HW,2013-03-10 15:00:00,
2013-03-10 16:05:00,54.5,45.3,29.46,ESE,113,0.0,0.0,71,0.00,,,0.00,WUHU216HW,2013-03-10 15:05:00,
2013-03-10 16:10:00,54.3,45.1,29.46,NE,45,0.0,0.0,71,0.00,,,0.00,WUHU216HW,2013-03-10 15:10:00,
2013-03-10 16:15:00,54.3,45.1,29.46,WNW,293,0.0,0.0,71,0.00,,,0.00,WUHU216HW,2013-03-10 15:15:00,
2013-03-10 16:20:00,54.1,44.9,29.46,SSW,203,0.0,0.0,71,0.00,,,0.00,WUHU216HW,2013-03-10 15:20:00,
2013-03-10 16:25:00,53.7,44.5,29.46,SSW,203,0.0,0.0,71,0.00,,,0.00,WUHU216HW,2013-03-10 15:25:00,
2013-03-10 16:30:00,53.7,44.9,29.46,WNW,293,0.0,0.0,72,0.00,,,0.00,WUHU216HW,2013-03-10 15:30:00,
2013-03-10 16:35:00,53.7,44.9,29.46,WSW,248,0.0,0.0,72,0.00,,,0.00,WUHU216HW,2013-03-10 15:35:00,
2013-03-10 16:41:00,53.7,45.3,29.46,WNW,293,0.0,0.0,73,0.00,,,0.00,WUHU216HW,2013-03-10 15:41:00,
2013-03-10 16:46:00,53.7,45.1,29.46,SSE,158,0.0,0.0,73,0.00,,,0.00,WUHU216HW,2013-03-10 15:46:00,
2013-03-10 16:51:00,53.4,44.9,29.46,SW,225,0.0,0.0,73,0.00,,,0.00,WUHU216HW,2013-03-10 15:51:00,
2013-03-10 16:56:00,53.4,45.3,29.46,SW,225,0.0,0.0,74,0.00,,,0.00,WUHU216HW,2013-03-10 15:56:00,
2013-03-10 17:01:00,53.4,45.3,29.46,West,270,0.0,0.0,74,0.00,,,0.00,WUHU216HW,2013-03-10 16:01:00,
2013-03-10 17:06:00,53.2,45.1,29.45,SW,225,0.0,0.0,74,0.00,,,0.00,WUHU216HW,2013-03-10 16:06:00,
2013-03-10 17:11:00,53.0,45.3,29.45,WNW,293,0.0,0.0,75,0.00,,,0.00,WUHU216HW,2013-03-10 16:11:00,
2013-03-10 17:16:00,52.8,45.5,29.45,WNW,293,0.0,0.0,76,0.00,,,0.00,WUHU216HW,2013-03-10 16:16:00,
2013-03-10 17:21:00,52.7,45.3,29.45,West,270,0.0,0.0,76,0.00,,,0.00,WUHU216HW,2013-03-10 16:21:00,
2013-03-10 17:26:00,52.5,45.1,29.45,WSW,248,0.0,1.7,76,0.00,,,0.00,WUHU216HW,2013-03-10 16:26:00,
2013-03-10 17:31:00,52.3,44.9,29.45,WSW,248,0.0,1.7,76,0.00,,,0.00,WUHU216HW,2013-03-10 16:31:00,
2013-03-10 17:36:00,52.3,44.9,29.46,West,270,0.0,0.0,76,0.00,,,0.00,WUHU216HW,2013-03-10 16:36:00,
2013-03-10 17:41:00,52.3,45.3,29.46,WSW,248,0.0,0.0,77,0.00,,,0.00,WUHU216HW,2013-03-10 16:41:00,
2013-03-10 17:46:00,52.1,45.1,29.46,North,0,0.0,0.6,77,0.00,,,0.00,WUHU216HW,2013-03-10 16:46:00,
2013-03-10 17:51:00,52.1,45.1,29.47,WSW,248,0.8,5.1,77,0.00,,,0.00,WUHU216HW,2013-03-10 16:51:00,
2013-03-10 17:56:00,51.9,44.9,29.47,West,270,0.0,5.1,77,0.00,,,0.00,WUHU216HW,2013-03-10 16:56:00,
2013-03-10 18:01:00,51.9,44.9,29.48,NNW,338,0.0,2.9,77,0.00,,,0.00,WUHU216HW,2013-03-10 17:01:00,
2013-03-10 18:06:00,51.6,44.9,29.49,WNW,293,0.0,0.0,78,0.00,,,0.00,WUHU216HW,2013-03-10 17:06:00,
2013-03-10 18:11:00,51.6,44.9,29.49,West,270,0.0,0.0,78,0.00,,,0.00,WUHU216HW,2013-03-10 17:11:00,
2013-03-10 18:16:00,51.6,45.1,29.50,WNW,293,0.0,0.0,79,0.00,,,0.00,WUHU216HW,2013-03-10 17:16:00,
2013-03-10 18:21:00,51.2,44.9,29.50,NW,315,0.0,0.0,79,0.00,,,0.00,WUHU216HW,2013-03-10 17:21:00,
2013-03-10 18:26:00,51.0,44.7,29.50,West,270,0.0,0.0,79,0.00,,,0.00,WUHU216HW,2013-03-10 17:26:00,
2013-03-10 18:31:00,51.0,44.7,29.50,West,270,2.6,2.6,79,0.00,,,0.00,WUHU216HW,2013-03-10 17:31:00,
2013-03-10 18:36:00,50.9,44.9,29.50,West,270,0.0,2.6,80,0.00,,,0.00,WUHU216HW,2013-03-10 17:36:00,